Location: Unspecified
(0.0000°N, 0.0000°E)
Time: 16:27:58
(UTC+00:00)

CZ-3B DEB - Visible Passes

Search period start: 14 January 2026 00:00
Search period end: 24 January 2026 00:00
Orbit: 807 x 41320 km, 26.5° (Epoch: 12 January)

Date Brightness Start Highest point End Pass type
(mag) Time Alt. Az. Time Alt. Az. Time Alt. Az.
15 Jan ? 01:17:39 54° N 04:35:16 69° NNW 12:28:02 10° SSE visible
16 Jan ? 02:26:48 48° NNW 04:22:11 61° NW 11:21:58 10° W visible
17 Jan ? 03:35:58 34° NW 05:04:55 47° NW 10:17:16 10° W visible
18 Jan ? 04:45:08 18° WNW 06:06:21 30° WNW 09:26:14 10° WNW visible
19 Jan ? 01:17:41 10° E 02:21:55 14° E 03:06:40 10° E visible
20 Jan ? 00:08:26 10° E 03:31:17 33° E 04:54:36 10° ESE visible
20 Jan ? 18:20:39 10° WSW 18:25:14 81° NNW 18:40:03 10° ENE visible
20 Jan ? 23:20:13 10° ENE 04:41:32 54° E 06:17:07 10° ESE visible
21 Jan ? 19:31:57 10° W 19:38:02 51° NNW 07:33:27 10° ESE visible
22 Jan ? 20:43:38 10° WNW 20:53:27 44° N 08:47:07 10° SE visible
